Weather WX

World > North America > United States > Missouri

Independence, Missouri Regional Weather

Lat: 39.09N, Lon: 94.42W
Wx Zone: MOZ037
Warning FLW WEATHER ALERT - (More Info. Click Here) Warning
Feedback

Independence, MO Regional Weather

Expires:201906241800;;009791
ASUS43 KEAX 241710
RWREAX

WEATHER ROUNDUP FOR EASTERN KANSAS AND NORTHWEST MISSOURI
NATIONAL WEATHER SERVICE KANSAS CITY/PLEASANT HILL MO
1200 PM CDT MON JUN 24 2019


KSZ040-057-103>105-MOZ028-029-037-043-241800-
...KANSAS CITY METROPOLITAN AREA...
  
CITY           SKY/WX    TMP DP  RH WIND       PRES   REMARKS
K.C. INTL      MOSUNNY   73  59  61 W9        29.85R                  
K.C. DOWNTOWN  SUNNY     74  56  53 W12G20    29.84S                  
LEES SUMMIT    MOSUNNY   69  57  65 W14G22    29.85S                  
OLATHE - IXD   SUNNY     72  57  59 NW12      29.88R                  
OLATHE - OJC   SUNNY     73  57  57 W9        29.87R                  
LAWRENCE       SUNNY     74  57  55 W9        29.86S                  

$$
 

SKY/WX - Weather  TMP - Temperature  DP - Dew Point  RH - Relative Humidity
WIND - Wind Direction/Speed PRES - Barometric Pressure VSB - Visibility
WCI - Wind Chill Index E13G22 Wind - East Wind 13 mph/Gusts of 22 mph